SGDC

Last updated on Sat Aug 15 2026 00:03:01 GMT+0000 (Coordinated Universal Time)

1 42692U 17023B 26226.31148400 .00000000 00000+0 00000+0 0 9993 2 42692 0.0041 93.5904 0002155 56.0958 210.3262 1.00268611 33980
UTC large
Height (km)
Speed (km/s)
/
Latitude / Longitude
Inclination (degrees)
Orbital Period (minutes)
Azimuth
Elevation
Range (km)
Doppler Factor

Next 0 passes for location: London (51.5072 / 0.1276)

No passes found over London.
SGDC